This demonstration page uses our WeatherBlox Daily Observations layout. Learn more.

Left ArrowRight Arrow

Hourly Observations for January 23, 2017

Temp ( °F °C ) Dew Point ( °F °C ) Humidity (%) Winds ( mph kmh ) Pressure ( in mb ) Visibility ( mi km ) Precip ( " mm )
12:59 am 00:59 Mostly Cloudy with Drizzle 48 8.9 47 8.3 96 96 NNE 8 13 29.52 1000 1 1 0.00 0.03
1:12 am 01:12 Mostly Cloudy with Light Rain 48 8.9 47 8.3 96 96 NE 6 9 29.53 1000 1 1 0.00 0.03
1:34 am 01:34 Mostly Cloudy with Light Rain 48 8.9 47 8.3 96 96 ENE 5 7 29.50 999 1 2 0.01 0.25
1:59 am 01:59 Mostly Cloudy with Light Rain 48 8.9 47 8.3 96 96 ENE 10 17 29.46 998 1 2 0.01 0.25
2:59 am 02:59 Mostly Cloudy with Light Rain 48 8.9 47 8.3 96 96 NE 12 19 29.43 997 1 2 0.00 0.03
3:59 am 03:59 Cloudy with Light Rain 48 8.9 48 8.9 100 100 NE 12 19 29.40 996 1 2 0.01 0.25
4:59 am 04:59 Mostly Cloudy with Fog 50 10 49 9.4 96 96 E 15 24 29.38 995 1 2 0.03 0.76
5:59 am 05:59 Mostly Cloudy with Light Rain 49 9.4 49 9.4 100 100 ENE 14 22 29.34 994 1 2 0.01 0.25
6:44 am 06:44 Cloudy with Light Rain 51 10.6 51 10.6 100 100 E 13 20 29.32 993 1 1 0.04 1.02
6:59 am 06:59 Cloudy with Light Rain 53 11.7 52 11.1 96 96 E 16 26 29.31 993 1 2 0.05 1.27
7:29 am 07:29 Cloudy with Light Rain 52 11.1 51 10.6 97 97 E 17 28 29.29 992 1 2 0.04 1.02
7:59 am 07:59 Cloudy with Light Rain 53 11.7 53 11.7 100 100 E 16 26 29.27 991 2 2 0.05 1.27
8:59 am 08:59 Cloudy with Mist and Fog 56 13.3 55 12.8 97 97 E 12 19 29.29 992 2 2 0.00 0.03
9:12 am 09:12 Cloudy with Rain 57 13.9 56 13.3 96 96 ENE 14 22 29.29 992 1 1 0.10 2.54
9:27 am 09:27 Cloudy with Light Rain 56 13.3 55 12.8 97 97 ENE 12 19 29.29 992 1 2 0.23 5.84
9:35 am 09:35 Cloudy with Mist and Fog 56 13.3 55 12.8 97 97 ENE 8 13 29.29 992 4 6 0.23 5.84
9:59 am 09:59 Cloudy with Mist and Fog 55 12.8 54 12.2 96 96 ENE 6 9 29.28 991 4 6 0.23 5.84
10:08 am 10:08 Cloudy with Mist and Fog 54 12.2 54 12.2 100 100 E 9 15 29.29 992 0 0 0.00 0.00
10:18 am 10:18 Cloudy with Mist and Fog 55 12.8 54 12.2 96 96 ESE 5 7 29.29 992 2 3 0.00 0.00
10:49 am 10:49 Mostly Cloudy 61 16.1 59 15 93 93 ESE 10 17 29.26 991 7 11 0.00 0.00
10:59 am 10:59 Mostly Cloudy 62 16.7 59 15 90 90 SE 7 11 29.26 991 10 16 0.00 0.00
11:53 am 11:53 Mostly Cloudy 64 18 61 16 88 88 VRB 7 11 29.26 991 10 16 0.00 0.00
11:59 am 11:59 Mostly Cloudy 65 18.3 59 15 81 81 SW 8 13 29.24 990 10 16 0.00 0.00
12:42 pm 12:42 Mostly Cloudy 57 13.9 53 11.7 87 87 NNW 8 13 29.23 990 10 16 0.00 0.00
12:59 pm 12:59 Mostly Cloudy 60 15.6 55 12.8 84 84 NNW 6 9 29.23 990 10 16 0.00 0.00
1:59 pm 13:59 Mostly Cloudy 58 14.4 53 11.7 84 84 N 6 9 29.24 990 7 11 0.00 0.00
2:10 pm 14:10 Mostly Cloudy with Mist and Fog 57 13.9 53 11.7 87 87 N 5 7 29.23 990 5 8 0.00 0.00
2:27 pm 14:27 Mostly Cloudy with Mist and Fog 56 13.3 53 11.7 90 90 N 5 7 29.26 991 6 10 0.00 0.00
2:59 pm 14:59 Mostly Cloudy 57 13.9 54 12.2 90 90 Calm 29.24 990 7 11 0.00 0.00
3:51 pm 15:51 Mostly Cloudy with Mist and Fog 54 12.2 51 10.6 90 90 NNW 13 20 29.26 991 5 8 0.00 0.00
3:57 pm 15:57 Cloudy with Mist and Fog 54 12 52 11 94 94 NNW 12 19 29.26 991 1 2 0.00 0.00
3:59 pm 15:59 Cloudy with Mist and Fog 54 12.2 51 10.6 90 90 NNW 10 17 29.26 991 1 2 0.00 0.00
4:59 pm 16:59 Cloudy with Mist and Fog 52 11.1 50 10 93 93 N 8 13 29.26 991 1 2 0.00 0.00
5:16 pm 17:16 Cloudy with Mist and Fog 52 11.1 50 10 93 93 NNW 13 20 29.26 991 1 2 0.00 0.00
5:59 pm 17:59 Cloudy with Mist and Fog 50 10 49 9.4 96 96 N 13 20 29.27 991 1 2 0.00 0.00
6:59 pm 18:59 Cloudy with Light Rain 50 10 48 8.9 93 93 N 17 28 29.29 992 1 2 0.00 0.03
7:59 pm 19:59 Cloudy with Light Rain 48 8.9 46 7.8 93 93 N 15 24 29.29 992 4 6 0.00 0.03
8:59 pm 20:59 Cloudy with Light Rain 47 8.3 45 7.2 93 93 N 12 19 29.31 993 4 6 0.01 0.25
9:59 pm 21:59 Cloudy with Light Rain 47 8.3 45 7.2 93 93 NNW 17 28 29.33 993 5 8 0.00 0.03
10:15 pm 22:15 Cloudy with Light Rain 47 8.3 45 7.2 93 93 NNW 17 28 29.32 993 4 6 0.00 0.03
10:59 pm 22:59 Cloudy with Light Rain 46 7.8 44 6.7 93 93 NW 16 26 29.34 994 10 16 0.00 0.03
11:28 pm 23:28 Cloudy with Light Rain 46 7.8 43 6.1 89 89 NW 20 31 29.35 994 10 16 0.00 0.03
11:59 pm 23:59 Cloudy with Light Rain 46 7.8 43 6.1 89 89 NNW 17 28 29.34 994 10 16 0.00 0.03

Powered by AerisWeather